Flag for Switzerland Weather past 2 weeks in Köniz, Bern, Switzerland

Now
30 °F

Light snow. Partly sunny.


Feels Like: 23 °F
Forecast: 10 / 27 °F
Wind: 7 mph from Northwest

Location: Bern / Belp

Current Time: Dec 28, 2014 at 12:46:47 PM

Latest Report: Dec 28, 2014 at 12:20 PM


Visibility: 2 mi

Pressure: 29.83 "Hg

Humidity: 86%

Dew point: 27 °F

Location of KönizLocation

Historic Weather in Köniz — Graph

°F

Köniz temperature yesterday

Maximum temperature yesterday: 39 °F (at 11:50 AM)
Minimum temperature yesterday: 25 °F (at 12:20 AM)
Average temperature yesterday: 33 °F

Past Weeks' High & Low Weather Summary

 TemperatureHumidityPressure
High54 °F (Dec 19, 2:20 PM)100% (Dec 14, 7:20 AM)30.54 "Hg (Dec 14, 7:20 AM)
Low23 °F (Dec 23, 7:50 AM)47% (Dec 23, 2:20 PM)29.53 "Hg (Dec 28, 12:20 AM)
Average38 °F89%30.17 "Hg
* Reported Dec 13 11:20 AM — Dec 28 11:20 AM, Köniz, Weather by CustomWeather, © 2014

Note: Actual official high and low records may vary slightly from our data, if they occured in-between our weather recording intervals... More about our weather records

Advertising

Köniz weather history for previous 24 hours

 ConditionsComfort  
Time TempWeatherWind HumidityBarometerVisibility
11:20 AM
Dec 28
30 °FLight snow. Broken clouds.6 mph86%29.80 "Hg4 mi
10:50 AM32 °FLight snow. Broken clouds.8 mph87%29.77 "Hg3 mi
10:20 AM32 °FSnow. Broken clouds.5 mph93%29.77 "Hg1 mi
9:50 AM32 °FSnow. Broken clouds.6 mph93%29.74 "Hg1 mi
9:20 AM32 °FSnow. Broken clouds.6 mph93%29.71 "Hg1 mi
8:50 AM32 °FSnow. Broken clouds.3 mph93%29.71 "Hg1 mi
8:20 AM32 °FLight snow. Broken clouds.5 mph93%29.68 "Hg1 mi
7:50 AM32 °FSnow flurries. Partly cloudy.6 mph93%29.65 "Hg2 mi
7:20 AM32 °FSnow flurries. Partly cloudy.5 mph87%29.65 "Hg3 mi
6:50 AM32 °FSnow flurries. Passing clouds.6 mph87%29.62 "HgN/A
6:20 AM32 °FLight snow. Passing clouds.10 mph87%29.59 "HgN/A
5:50 AM32 °FLight snow. Passing clouds.6 mph93%29.59 "Hg3 mi
5:20 AM32 °FSnow. Dense fog.10 mph93%29.59 "Hg1 mi
4:20 AM34 °FPassing clouds.6 mph75%29.56 "HgN/A
3:50 AM34 °FSprinkles. Partly cloudy.12 mph81%29.56 "HgN/A
3:20 AM36 °FSnow flurries. Passing clouds.9 mph70%29.53 "HgN/A
2:50 AM36 °FChilly.10 mph70%29.53 "HgN/A
2:20 AM36 °FPassing clouds.6 mph70%29.53 "HgN/A
1:50 AM36 °FPassing clouds.8 mph70%29.53 "HgN/A
1:20 AM36 °FChilly.10 mph70%29.53 "HgN/A
12:50 AM36 °FPassing clouds.8 mph70%29.53 "HgN/A
12:20 AM36 °FPassing clouds.10 mph70%29.53 "HgN/A
11:50 PM
Dec 27
36 °FPassing clouds.8 mph70%29.56 "HgN/A
11:20 PM36 °FPassing clouds.8 mph70%29.56 "HgN/A
10:50 PM36 °FPassing clouds.9 mph75%29.56 "HgN/A
10:20 PM36 °FPassing clouds.13 mph75%29.56 "HgN/A
9:50 PM36 °FPassing clouds.15 mph75%29.56 "HgN/A
9:20 PM36 °FLight snow. Partly cloudy.15 mph75%29.56 "HgN/A
8:50 PM36 °FLight snow. Passing clouds.12 mph81%29.56 "HgN/A
8:20 PM36 °FSnow flurries. Passing clouds.12 mph75%29.56 "HgN/A
7:50 PM36 °FSnow flurries. Passing clouds.15 mph75%29.56 "HgN/A
7:20 PM36 °FSnow flurries. Passing clouds.9 mph81%29.56 "HgN/A
6:50 PM36 °FSnow flurries. Passing clouds.9 mph81%29.56 "Hg5 mi
6:20 PM36 °FPartly cloudy.9 mph81%29.56 "Hg5 mi
5:50 PM36 °FPartly cloudy.10 mph81%29.56 "Hg5 mi
5:20 PM36 °FLight snow. Partly cloudy.8 mph87%29.56 "Hg5 mi
4:50 PM37 °FPartly cloudy.14 mph75%29.56 "Hg5 mi
4:20 PM37 °FBroken clouds.8 mph75%29.56 "Hg5 mi
3:50 PM37 °FBroken clouds.6 mph81%29.56 "HgN/A
3:20 PM37 °FSprinkles. Broken clouds.8 mph81%29.56 "Hg3 mi
2:50 PM37 °FDrizzle. Broken clouds.7 mph81%29.56 "HgN/A
2:20 PM39 °FSprinkles. More clouds than sun.10 mph75%29.59 "Hg3 mi
1:50 PM39 °FDrizzle. Broken clouds.13 mph75%29.59 "HgN/A
1:20 PM39 °FSprinkles. Partly sunny.13 mph75%29.59 "HgN/A
12:50 PM39 °FBroken clouds.12 mph75%29.59 "Hg3 mi
12:20 PM39 °FLight rain. Partly sunny.14 mph81%29.59 "Hg3 mi
Weather by CustomWeather, © 2014

See weather overviewHow to use our weather pages